Waarnemingen

Advertentie
Mijn weer
Falsterbo, Zweden (2616): temperatuur & dauwpunt: 14.10.2017 21:00:00 - 20.10.2017 21:00:00 (CEST)Falsterbo, Zweden (2616): windsnelheid: 14.10.2017 21:00:00 - 20.10.2017 21:00:00 (CEST)Falsterbo, Zweden (2616): windrichting: 14.10.2017 21:00:00 - 20.10.2017 21:00:00 (CEST)Falsterbo, Zweden (2616): luchtdruk: 14.10.2017 21:00:00 - 20.10.2017 21:00:00 (CEST)Falsterbo, Zweden (2616): zicht: 14.10.2017 21:00:00 - 20.10.2017 21:00:00 (CEST)
Datum & Tijd tt [°C] td [°C] ff [km/u] ff [kn] dd ppp [hPa] vv [km]
20.10.2017 21:00:00 - - - - - - -
20.10.2017 20:00:00 11,7 11,4 36 19 O 1012,3 3,0
20.10.2017 19:00:00 - - - - - - -
20.10.2017 18:00:00 - - - - - - -
20.10.2017 17:00:00 12,0 11,2 25 14 OZO 1013,0 2,5
20.10.2017 16:00:00 - - - - - - -
20.10.2017 15:00:00 - - - - - - -
20.10.2017 14:00:00 11,8 11,5 32 18 OZO 1012,8 1,7
20.10.2017 13:00:00 - - - - - - -
20.10.2017 12:00:00 - - - - - - -
20.10.2017 11:00:00 11,9 11,4 32 18 OZO 1013,3 1,7
20.10.2017 10:00:00 - - - - - - -
20.10.2017 09:00:00 - - - - - - -
20.10.2017 08:00:00 11,8 11,2 36 19 OZO 1013,4 3,5
20.10.2017 07:00:00 - - - - - - -
20.10.2017 06:00:00 - - - - - - -
20.10.2017 05:00:00 11,6 11,0 40 21 OZO 1013,9 18
20.10.2017 04:00:00 - - - - - - -
20.10.2017 03:00:00 - - - - - - -
20.10.2017 02:00:00 11,6 11,0 40 21 O 1014,9 30
20.10.2017 01:00:00 - - - - - - -
20.10.2017 00:00:00 - - - - - - -
19.10.2017 23:00:00 11,4 10,6 43 23 OZO 1016,1 30
19.10.2017 22:00:00 - - - - - - -
19.10.2017 21:00:00 - - - - - - -
19.10.2017 20:00:00 11,5 10,9 40 21 O 1016,4 30
19.10.2017 19:00:00 - - - - - - -
19.10.2017 18:00:00 - - - - - - -
19.10.2017 17:00:00 11,9 11,1 32 18 O 1016,7 29
19.10.2017 16:00:00 - - - - - - -
19.10.2017 15:00:00 - - - - - - -
19.10.2017 14:00:00 12,3 11,7 29 16 OZO 1017,3 11
19.10.2017 13:00:00 - - - - - - -
19.10.2017 12:00:00 - - - - - - -
19.10.2017 11:00:00 12,2 11,9 29 16 OZO 1017,6 3,5
19.10.2017 10:00:00 - - - - - - -
19.10.2017 09:00:00 - - - - - - -
19.10.2017 08:00:00 11,5 11,2 22 12 O 1016,8 5
19.10.2017 07:00:00 - - - - - - -
19.10.2017 06:00:00 - - - - - - -
19.10.2017 05:00:00 11,7 11,2 18 10 O 1016,4 23
19.10.2017 04:00:00 - - - - - - -
19.10.2017 03:00:00 - - - - - - -
19.10.2017 02:00:00 11,7 11,1 11 6 O 1016,5 27
19.10.2017 01:00:00 - - - - - - -
19.10.2017 00:00:00 - - - - - - -
18.10.2017 23:00:00 12,1 11,3 4 2 NNO 1016,7 10
18.10.2017 22:00:00 - - - - - - -
18.10.2017 21:00:00 - - - - - - -
18.10.2017 20:00:00 12,3 11,2 4 2 ZZO 1015,6 30
18.10.2017 19:00:00 - - - - - - -
18.10.2017 18:00:00 - - - - - - -
18.10.2017 17:00:00 12,9 11,6 7 4 WZW 1015,3 35
18.10.2017 16:00:00 - - - - - - -
18.10.2017 15:00:00 - - - - - - -
18.10.2017 14:00:00 13,2 11,4 11 6 WZW 1015,2 23
18.10.2017 13:00:00 - - - - - - -
18.10.2017 12:00:00 - - - - - - -
18.10.2017 11:00:00 12,8 11,0 22 12 W 1014,7 20
18.10.2017 10:00:00 - - - - - - -
18.10.2017 09:00:00 - - - - - - -
18.10.2017 08:00:00 12,1 10,7 25 14 WZW 1013,9 17
18.10.2017 07:00:00 - - - - - - -
18.10.2017 06:00:00 - - - - - - -
18.10.2017 05:00:00 12,0 11,1 32 18 WZW 1013,5 14
18.10.2017 04:00:00 - - - - - - -
18.10.2017 03:00:00 - - - - - - -
18.10.2017 02:00:00 12,3 10,9 32 18 WZW 1014,2 15
18.10.2017 01:00:00 - - - - - - -
18.10.2017 00:00:00 - - - - - - -
17.10.2017 23:00:00 12,6 10,8 29 16 WZW 1015,0 20
17.10.2017 22:00:00 - - - - - - -
17.10.2017 21:00:00 - - - - - - -
17.10.2017 20:00:00 12,8 10,9 29 16 WZW 1015,1 17
17.10.2017 19:00:00 - - - - - - -
17.10.2017 18:00:00 - - - - - - -
17.10.2017 17:00:00 13,3 11,2 32 18 WZW 1015,2 12
17.10.2017 16:00:00 - - - - - - -
17.10.2017 15:00:00 - - - - - - -
17.10.2017 14:00:00 13,8 11,7 29 16 WZW 1016,2 14
17.10.2017 13:00:00 - - - - - - -
17.10.2017 12:00:00 - - - - - - -
17.10.2017 11:00:00 13,7 12,6 22 12 ZW 1016,9 9
17.10.2017 10:00:00 - - - - - - -
17.10.2017 09:00:00 - - - - - - -
17.10.2017 08:00:00 13,3 12,5 22 12 ZZW 1016,4 6
17.10.2017 07:00:00 - - - - - - -
17.10.2017 06:00:00 - - - - - - -
17.10.2017 05:00:00 12,9 12,4 22 12 Z 1016,9 2,0
17.10.2017 04:00:00 - - - - - - -
17.10.2017 03:00:00 - - - - - - -
17.10.2017 02:00:00 12,8 12,3 22 12 Z 1019,0 4,0
17.10.2017 01:00:00 - - - - - - -
17.10.2017 00:00:00 - - - - - - -
16.10.2017 23:00:00 12,9 12,6 14 8 Z 1020,2 2,5
16.10.2017 22:00:00 - - - - - - -
16.10.2017 21:00:00 - - - - - - -
16.10.2017 20:00:00 13,0 12,4 14 8 ZW 1020,3 4,0
16.10.2017 19:00:00 - - - - - - -
16.10.2017 18:00:00 - - - - - - -
16.10.2017 17:00:00 13,6 12,3 14 8 WZW 1019,8 9
16.10.2017 16:00:00 - - - - - - -
16.10.2017 15:00:00 - - - - - - -
16.10.2017 14:00:00 14,0 13,0 14 8 W 1019,7 2,5
16.10.2017 13:00:00 - - - - - - -
16.10.2017 12:00:00 - - - - - - -
16.10.2017 11:00:00 13,6 12,8 14 8 ZW 1019,0 4,0
16.10.2017 10:00:00 - - - - - - -
16.10.2017 09:00:00 - - - - - - -
16.10.2017 08:00:00 12,9 12,3 18 10 WZW 1017,9 5
16.10.2017 07:00:00 - - - - - - -
16.10.2017 06:00:00 - - - - - - -
16.10.2017 05:00:00 13,0 12,2 18 10 ZW 1017,9 22
16.10.2017 04:00:00 - - - - - - -
16.10.2017 03:00:00 - - - - - - -
16.10.2017 02:00:00 13,2 12,7 22 12 ZW 1018,5 8
16.10.2017 01:00:00 - - - - - - -
16.10.2017 00:00:00 - - - - - - -
15.10.2017 23:00:00 13,0 12,7 18 10 Z 1019,4 4,0
15.10.2017 22:00:00 - - - - - - -
15.10.2017 21:00:00 - - - - - - -
15.10.2017 20:00:00 12,6 12,1 18 10 ZZO 1021,1 4,0
15.10.2017 19:00:00 - - - - - - -
15.10.2017 18:00:00 - - - - - - -
15.10.2017 17:00:00 12,8 12,5 29 16 ZZW 1022,0 1,5
15.10.2017 16:00:00 - - - - - - -
15.10.2017 15:00:00 - - - - - - -
15.10.2017 14:00:00 14,7 13,9 14 8 ZZW 1023,3 5
15.10.2017 13:00:00 - - - - - - -
15.10.2017 12:00:00 - - - - - - -
15.10.2017 11:00:00 13,9 13,4 11 6 ZZW 1024,0 9
15.10.2017 10:00:00 - - - - - - -
15.10.2017 09:00:00 - - - - - - -
15.10.2017 08:00:00 13,0 12,5 11 6 W 1023,4 30
15.10.2017 07:00:00 - - - - - - -
15.10.2017 06:00:00 - - - - - - -
15.10.2017 05:00:00 13,9 13,4 25 14 W 1021,7 6
15.10.2017 04:00:00 - - - - - - -
15.10.2017 03:00:00 - - - - - - -
15.10.2017 02:00:00 14,1 13,5 32 18 W 1020,5 20
15.10.2017 01:00:00 - - - - - - -
15.10.2017 00:00:00 - - - - - - -
14.10.2017 23:00:00 14,1 13,5 32 18 WZW 1020,5 8
14.10.2017 22:00:00 - - - - - - -
14.10.2017 21:00:00 - - - - - - -

tt = temperatuur
td = dauwpunt
ff = windsnelheid
dd = windrichting
ppp = luchtdruk
vv = zicht

Weerstations in de omgeving